GEFSMW_500_meanwind_090.txt.gz
Wind_Speed
6 5 4 3 2 3 4 7 9 11 13 14 15 16 17 18 18 18 17 16 15 14 12 10 8 8 10 11 13 16 19 21 22 24 25 25 26 27 26 26 27 26 26
7 6 5 3 2 3 4 6 9 11 13 14 15 16 17 18 18 18 18 17 16 14 13 10 7 6 6 8 10 13 15 19 21 22 24 24 25 26 27 27 28 27 27
7 7 6 4 3 3 4 6 8 10 12 14 15 16 17 18 18 18 18 17 16 15 13 11 8 6 4 5 8 10 13 15 18 21 22 23 24 26 27 28 29 29 29
8 8 7 5 4 3 4 6 8 10 12 14 15 16 17 17 17 18 18 18 17 15 14 11 9 7 5 4 5 8 10 13 15 19 21 22 22 25 27 28 30 30 30
9 9 7 5 4 4 5 6 8 10 12 13 15 16 16 17 17 17 18 18 17 16 14 12 10 8 6 4 4 7 9 11 13 16 19 21 21 23 26 28 30 31 31
10 9 8 6 5 5 5 6 8 10 11 13 15 16 16 16 17 17 17 18 17 16 15 13 11 9 7 5 4 4 6 9 11 14 16 19 21 22 25 27 29 31 31
11 10 8 7 7 6 6 7 8 9 11 13 14 15 16 16 16 16 17 17 17 16 16 14 12 10 8 7 6 5 5 7 9 12 14 17 19 21 23 25 28 29 31
11 10 9 8 7 7 7 7 8 9 11 12 14 15 15 16 16 16 16 16 16 16 16 15 13 11 10 8 7 6 5 6 7 10 12 14 17 20 22 24 26 28 29
12 11 10 9 8 7 7 8 9 10 11 12 13 14 15 15 15 15 15 16 16 16 15 15 13 12 10 9 8 7 6 5 6 8 10 12 15 17 20 22 23 26 28
13 12 11 10 9 8 8 8 9 10 11 12 13 13 14 15 15 15 15 15 15 15 15 14 13 12 11 9 8 7 6 6 5 6 8 10 12 14 17 20 21 23 25
14 13 12 11 10 9 8 9 9 10 10 11 12 13 13 14 14 15 15 15 15 15 15 14 14 13 12 10 9 8 7 6 5 6 7 8 10 12 15 17 20 22 24
16 15 14 12 11 10 9 9 9 10 10 11 11 12 13 13 14 14 15 15 15 15 15 15 14 13 12 11 10 9 8 7 6 6 7 8 9 11 13 15 18 20 22
17 16 15 14 12 11 10 10 10 10 10 10 11 11 12 13 14 14 15 15 15 15 15 15 14 14 13 12 11 10 9 8 7 7 7 7 8 10 11 13 16 18 20
18 17 16 15 14 12 11 11 10 10 10 10 10 11 12 12 13 14 15 15 15 15 15 15 15 14 13 13 12 11 9 9 8 7 7 7 8 9 11 12 14 16 19
19 18 17 16 15 14 13 12 11 11 10 10 10 11 11 12 13 14 15 15 15 15 16 16 15 15 14 13 13 12 11 10 10 9 8 8 8 9 10 12 13 15 17
21 20 19 18 17 15 14 13 12 12 11 11 11 11 11 12 13 14 15 15 15 15 16 16 16 15 15 14 13 12 12 11 11 10 9 9 9 10 10 11 12 14 15
21 21 20 19 18 17 16 14 13 13 12 12 11 11 12 12 13 14 15 15 15 15 15 16 16 16 15 14 13 13 12 12 11 11 10 10 10 11 11 12 12 13 14
22 21 21 20 19 18 17 16 15 14 13 13 12 12 12 12 13 14 15 15 15 15 16 16 16 16 16 15 14 13 13 13 12 12 11 11 11 12 12 13 13 14 14
22 22 21 21 20 19 18 17 16 16 15 14 14 13 13 13 13 14 15 15 16 16 16 17 17 17 16 15 15 14 14 14 13 13 13 13 13 13 13 13 14 14 15
23 23 22 22 21 21 20 19 18 17 17 16 15 15 14 14 14 15 15 16 16 16 17 17 18 18 17 16 16 16 16 15 15 15 14 14 15 14 14 14 15 15 15
24 24 24 23 23 22 21 20 20 19 18 18 17 16 16 15 16 16 16 16 17 17 18 18 19 19 18 18 17 17 17 17 17 17 16 16 16 16 15 15 16 16 16
25 25 25 25 25 24 23 22 22 21 20 19 19 18 17 17 17 17 17 17 18 18 19 19 20 20 20 19 19 19 19 19 19 19 18 18 17 17 17 16 16 17 17
27 27 27 27 26 25 25 24 23 23 22 21 21 20 19 18 18 18 18 18 19 19 20 20 21 21 21 20 20 20 20 20 20 20 20 19 19 19 18 18 18 18 18
28 28 28 28 28 27 27 26 25 25 24 23 23 22 21 20 20 20 20 20 20 21 21 22 22 22 22 22 22 21 21 21 21 21 21 21 20 20 20 20 19 19 19
30 30 30 30 30 29 29 28 27 27 26 26 25 24 23 22 22 21 21 21 21 22 23 23 23 23 23 23 23 23 23 23 23 22 22 22 22 21 21 21 21 20 20
33 32 32 32 32 31 31 30 30 29 29 28 27 26 25 24 24 23 23 23 23 23 24 24 25 25 25 25 25 25 25 24 24 24 24 23 23 22 22 22 22 22 22

GEFSMW_500_meanwind_096.txt.gz
Wind_Speed
10 8 8 8 7 8 8 9 10 12 14 15 17 19 20 21 21 21 20 20 20 20 18 17 15 12 10 8 7 8 10 12 14 16 19 20 20 22 23 24 24 24 25
11 9 9 8 8 8 8 9 10 12 14 15 17 19 20 21 21 20 20 20 20 20 19 17 15 12 10 8 6 6 7 10 12 14 17 19 20 22 22 23 24 24 24
11 10 9 9 8 8 9 9 10 12 14 15 17 18 20 20 20 20 19 19 19 19 18 17 15 12 10 8 6 5 6 7 10 12 15 18 20 22 22 22 24 24 25
12 11 10 10 9 9 9 9 11 12 14 15 17 18 19 19 20 19 19 19 19 18 17 16 15 13 11 9 6 5 4 5 8 10 12 15 18 20 21 22 23 24 25
12 12 11 10 10 9 9 10 11 12 14 15 16 17 18 19 19 19 18 18 18 18 17 16 15 13 11 9 7 5 4 4 6 8 10 13 16 19 19 20 23 24 25
12 12 12 11 11 10 10 10 11 12 14 15 16 17 18 18 18 18 18 18 18 18 17 16 15 14 12 9 8 6 5 4 5 6 9 11 14 17 18 18 20 23 24
12 12 12 12 11 11 10 10 11 12 13 14 15 16 17 18 18 18 18 18 18 18 17 16 15 14 12 10 8 7 6 5 4 5 7 9 12 16 16 18 19 21 23
12 13 13 13 12 12 11 11 11 12 13 14 14 15 16 17 17 17 18 17 17 17 17 16 15 14 12 11 9 7 6 6 5 5 6 8 10 13 14 16 17 19 21
14 13 13 13 13 12 12 12 11 11 12 13 14 15 15 16 17 17 18 18 17 17 17 16 15 14 13 11 10 8 7 6 6 5 6 7 9 11 13 14 15 17 20
15 15 14 14 14 14 13 12 12 12 12 13 13 14 15 15 16 17 17 17 17 17 16 16 15 15 14 12 11 9 8 7 6 6 6 6 8 10 12 14 14 16 18
15 15 16 16 15 15 14 13 12 12 12 12 13 14 14 15 16 17 17 17 17 17 16 16 15 15 14 13 12 11 9 8 7 6 6 7 7 8 10 13 14 16 17
17 16 17 17 17 16 15 14 13 13 12 12 13 13 14 14 15 16 17 17 17 16 16 16 15 15 14 14 13 12 10 9 8 7 6 7 7 8 9 11 13 14 16
18 17 17 18 18 17 17 16 15 14 13 13 13 13 14 14 15 15 16 17 16 16 16 16 15 15 15 14 13 13 11 10 9 8 7 7 7 8 9 10 12 13 15
19 19 19 19 19 19 18 17 16 15 14 13 13 13 13 14 14 15 15 16 16 16 15 15 15 15 15 14 13 12 12 11 10 9 8 7 7 8 9 10 11 12 14
20 20 20 20 20 20 20 19 18 17 16 15 14 14 14 14 14 15 15 16 16 15 15 15 15 15 15 14 14 13 12 11 11 10 9 8 8 8 9 10 11 12 13
21 21 21 21 21 21 21 20 19 18 17 16 16 15 15 14 14 15 15 15 15 15 15 15 15 15 15 15 15 14 13 12 11 10 10 9 9 9 10 10 11 12 13
22 22 22 22 22 22 22 22 21 20 19 18 17 16 16 15 15 15 15 15 15 15 15 15 15 15 16 16 15 15 14 13 12 11 11 10 10 11 11 11 12 12 13
22 22 23 23 23 24 24 24 23 22 21 20 19 18 17 16 16 16 16 15 15 15 15 15 15 15 16 16 15 15 14 14 13 13 12 12 12 12 12 12 13 14 14
23 23 24 24 25 25 25 25 25 24 23 22 21 20 19 18 17 17 16 16 16 15 16 15 15 15 16 16 16 15 15 14 14 14 13 13 13 13 13 14 14 15 15
25 24 25 26 27 27 27 27 26 26 24 24 23 22 21 20 19 18 18 17 17 16 16 16 16 16 16 16 16 16 15 15 15 15 14 14 15 15 15 15 15 15 16
27 27 27 27 28 29 29 29 28 28 27 26 25 24 22 22 21 20 19 19 18 18 17 17 17 17 17 17 17 16 16 16 16 16 16 16 16 16 16 16 16 17 17
30 29 29 29 30 31 31 30 30 30 30 29 27 26 25 24 23 22 21 21 20 19 19 18 18 18 18 17 17 17 17 17 17 17 16 17 17 17 17 18 18 18 18
33 33 32 31 31 32 32 32 32 32 32 31 30 29 27 26 25 24 24 23 22 21 21 20 20 19 19 19 18 18 18 18 18 18 18 18 18 18 18 19 19 19 19
37 36 35 34 33 33 33 33 33 34 33 33 32 31 30 28 28 27 26 25 24 24 23 22 21 21 20 20 20 20 20 19 19 19 20 20 20 20 20 20 20 20 20
40 40 39 38 37 36 36 35 35 35 35 34 34 33 32 31 30 29 28 27 26 26 25 24 23 23 22 22 22 21 21 21 21 21 21 21 22 22 22 22 22 22 21
43 43 42 41 40 40 39 38 38 37 37 37 36 35 34 33 32 31 30 29 29 28 27 26 26 25 24 24 23 23 23 23 22 22 23 23 23 23 23 23 23 23 23

GEFSMW_500_meanwind_102.txt.gz
Wind_Speed
7 7 7 6 5 6 6 6 8 9 10 12 14 16 17 18 19 19 20 20 20 20 20 19 18 16 13 12 9 7 6 8 10 12 15 19 22 24 26 28 28 27 27
7 7 7 7 6 6 6 7 8 9 10 12 14 15 17 18 18 19 19 20 20 20 19 19 18 16 14 11 9 6 5 6 8 11 14 16 19 22 24 27 27 27 26
6 7 7 7 7 7 7 7 8 9 10 12 13 15 16 17 17 18 19 19 20 19 19 19 18 16 14 12 9 6 4 4 6 9 12 15 17 20 22 25 26 26 26
7 7 7 7 7 7 7 8 9 9 10 11 13 14 15 16 17 17 18 19 19 19 19 18 18 16 14 12 11 8 4 3 4 7 10 13 16 18 20 23 25 25 25
7 8 8 8 8 8 8 8 9 10 10 11 12 13 14 15 16 17 18 18 19 19 18 18 17 16 14 13 11 9 6 3 2 5 8 11 13 15 18 21 23 24 25
8 8 8 8 8 8 8 9 9 10 10 10 11 12 13 14 15 16 17 18 18 18 18 17 17 16 14 12 11 9 8 5 1 2 5 9 11 14 16 18 20 22 23
9 9 9 9 9 9 9 9 10 10 10 10 10 11 12 13 14 15 16 17 18 18 17 17 16 15 14 13 11 10 8 6 3 1 4 7 10 13 15 17 19 20 22
9 9 10 10 9 10 10 10 10 10 10 10 10 11 11 12 13 14 15 16 17 17 17 16 15 14 14 13 11 11 9 7 4 2 1 4 7 11 14 16 17 19 20
10 10 10 11 11 11 11 11 11 11 10 10 10 10 11 11 12 13 14 15 16 16 15 15 15 14 14 12 11 10 10 8 5 3 1 2 5 8 11 15 16 17 19
12 12 12 12 12 12 12 12 12 12 11 11 11 11 11 11 12 13 14 14 15 15 14 14 15 14 13 12 11 10 10 8 6 4 2 2 4 6 9 13 14 15 18
12 13 13 13 14 14 14 14 14 13 12 12 12 11 11 11 11 12 13 13 14 14 14 14 14 14 13 12 11 10 9 8 7 5 4 3 4 6 7 10 12 14 16
12 13 14 14 15 15 15 15 15 15 14 14 13 13 12 11 11 11 12 12 13 13 13 13 13 13 13 13 12 10 9 8 7 6 5 4 3 5 7 9 11 12 14
14 14 14 15 16 16 17 17 17 17 16 16 15 14 13 12 12 11 11 12 12 12 12 12 12 12 12 12 12 11 10 8 7 6 5 4 4 5 6 8 10 12 13
15 15 15 16 17 17 18 18 19 19 18 18 17 16 15 14 13 12 12 11 11 12 12 11 11 11 11 11 11 11 10 9 9 7 6 5 4 5 6 7 9 11 12
17 17 17 17 18 18 19 20 20 20 20 19 19 18 17 16 15 14 13 12 11 11 11 11 11 11 11 10 10 10 10 10 9 9 7 6 6 5 6 7 8 9 11
18 19 18 18 19 19 20 21 21 22 22 21 21 20 19 18 17 16 14 13 12 12 11 11 11 11 11 11 10 10 10 10 10 9 8 7 7 6 6 7 7 9 10
21 21 20 20 20 21 21 22 22 23 23 23 23 22 21 20 19 18 16 15 14 13 12 12 12 12 11 11 11 10 10 10 10 10 9 8 7 7 7 7 7 8 10
23 23 22 22 22 23 23 23 24 24 25 25 25 25 24 23 22 20 19 18 16 15 14 14 13 12 12 12 11 11 10 10 10 10 9 9 8 8 9 9 9 9 10
25 25 25 25 25 25 25 25 25 25 26 26 26 27 27 26 25 23 22 21 19 17 16 15 15 14 13 12 12 12 11 11 11 10 10 9 9 9 9 10 10 11 11
28 28 28 28 28 28 28 28 27 28 27 28 28 29 29 28 27 26 25 23 22 20 19 17 16 15 14 14 13 12 12 12 12 11 11 10 10 10 10 10 11 11 12
32 32 31 31 31 31 31 31 30 30 30 30 30 31 30 30 30 29 28 26 25 23 22 20 19 18 17 16 15 14 14 14 13 13 13 12 12 12 12 12 12 13 13
36 36 35 35 35 35 34 34 34 34 33 33 33 33 32 32 32 32 30 29 28 26 25 23 21 20 19 18 17 16 16 15 15 15 15 15 14 14 13 13 14 14 15
41 40 40 39 38 38 38 37 37 37 37 36 35 35 34 34 34 34 33 31 30 29 27 26 24 22 21 20 19 18 18 17 17 17 17 17 16 16 16 15 15 15 16
46 46 44 43 42 42 42 41 40 41 40 40 39 38 37 36 36 36 35 34 32 31 30 28 27 25 24 22 22 21 20 19 19 18 18 18 18 18 18 18 17 17 17
51 50 49 48 46 46 45 45 45 44 44 43 42 41 40 39 38 37 37 36 34 33 32 31 29 28 26 25 24 23 22 21 21 20 19 19 19 19 19 19 19 19 19
54 54 53 52 50 49 48 48 48 48 47 46 45 44 43 42 41 40 39 38 37 35 34 33 32 30 29 28 26 25 24 23 23 22 21 21 21 21 21 21 21 21 21

GEFSMW_500_meanwind_108.txt.gz
Wind_Speed
10 10 10 10 9 8 8 8 7 7 8 9 10 12 13 14 15 16 17 18 19 19 19 19 19 19 19 17 15 12 10 9 8 9 10 12 15 19 23 26 26 27 28
10 10 10 9 9 9 9 8 8 8 8 9 10 11 12 14 15 15 16 17 19 19 19 19 19 19 19 17 14 12 10 8 8 8 9 11 13 17 21 24 25 26 27
9 10 10 10 10 9 9 9 9 8 8 9 10 11 12 13 14 15 16 17 19 19 19 19 19 19 18 16 14 11 9 8 6 6 7 9 11 14 19 22 24 24 27
9 10 10 10 9 9 9 9 9 9 9 9 10 10 11 12 13 14 16 17 18 19 19 19 18 18 17 16 14 11 9 8 6 4 5 7 9 11 15 19 22 23 25
9 9 9 10 9 9 10 10 10 10 9 9 10 10 11 12 13 14 15 17 18 18 19 19 18 17 17 16 14 11 10 8 6 4 4 6 8 10 13 16 19 21 23
10 9 9 9 10 10 10 10 11 10 10 10 10 11 11 12 13 13 15 16 17 18 18 18 17 17 16 15 14 11 9 8 6 4 3 4 7 9 11 14 17 19 22
10 10 9 9 10 10 10 11 11 11 11 11 11 11 11 12 13 13 14 15 16 17 17 17 16 16 15 15 14 12 10 8 7 5 2 2 5 8 10 13 15 17 19
10 11 11 10 11 11 11 11 12 12 12 12 12 12 12 12 13 13 14 15 15 16 16 16 15 15 14 14 13 12 11 9 6 5 3 1 4 6 9 11 14 16 18
11 11 11 11 12 12 12 12 13 13 13 13 13 13 13 13 13 14 14 14 15 15 15 15 15 14 14 13 12 12 10 8 7 6 4 2 3 5 7 10 12 14 16
11 11 12 12 12 13 13 14 14 14 14 14 14 14 14 14 14 14 14 14 14 15 15 14 14 14 13 13 12 11 10 9 8 6 4 2 3 5 7 8 11 13 15
12 13 13 13 13 13 14 14 15 15 16 16 15 15 15 15 15 15 15 15 15 14 14 14 13 13 12 12 12 11 10 9 8 7 5 3 3 5 7 8 11 12 14
13 13 14 14 15 15 15 15 15 16 17 17 17 17 17 17 17 16 16 16 16 15 14 13 13 12 12 12 11 10 10 9 8 7 5 4 3 4 5 7 9 11 13
14 14 15 15 16 16 16 16 16 17 17 18 18 19 19 18 18 18 17 17 17 16 15 14 13 13 12 11 11 10 10 9 8 7 6 4 3 3 5 7 9 10 12
15 15 16 16 17 17 18 18 18 18 19 19 19 20 20 20 20 20 19 19 18 18 16 15 15 14 13 12 11 10 10 9 9 8 7 5 4 4 4 6 7 9 11
16 16 17 17 18 19 20 20 20 20 21 21 21 22 22 22 22 22 21 21 20 20 18 17 16 15 14 13 12 11 10 9 9 8 7 6 6 6 5 6 7 8 9
18 18 18 19 20 20 21 22 22 23 23 23 23 23 23 23 24 24 23 23 23 22 21 19 18 17 16 15 14 13 12 10 10 9 8 7 7 6 7 7 8 8 9
21 21 21 21 22 22 23 23 24 25 25 26 26 26 26 26 25 25 25 25 25 24 23 22 21 19 18 17 16 15 14 12 11 10 10 9 8 7 7 8 8 9 9
25 25 26 26 27 27 26 27 27 27 27 28 29 29 29 28 28 28 27 27 27 27 26 25 24 22 21 19 18 17 16 15 13 12 11 10 10 9 9 9 9 10 10
28 29 30 30 31 31 31 31 31 31 31 31 31 32 32 32 32 31 31 30 30 29 29 28 27 25 24 22 20 19 18 17 16 15 13 12 12 11 11 11 11 10 10
32 33 34 34 35 35 35 35 35 35 35 35 35 35 35 35 35 35 34 34 33 32 31 30 29 28 27 26 23 22 20 19 18 17 16 15 14 13 13 12 12 12 12
36 37 37 38 39 39 40 40 40 40 39 39 39 39 39 38 38 37 37 37 36 35 34 33 32 31 30 29 27 25 23 22 21 20 18 17 17 16 15 14 14 14 14
39 40 41 42 42 43 44 44 44 44 44 44 43 43 42 41 41 40 40 40 39 38 37 36 35 34 33 32 30 29 26 25 23 22 21 20 19 18 17 17 16 16 15
44 44 45 45 46 47 48 48 48 49 48 48 47 46 45 45 44 43 43 42 42 41 40 39 37 36 35 35 33 32 30 28 27 25 24 23 22 21 20 19 19 18 18
48 48 49 50 51 51 52 52 51 51 51 51 50 49 48 48 47 46 46 46 45 44 43 41 40 38 38 37 36 34 33 31 30 28 27 25 24 23 22 21 21 20 20
52 53 54 55 55 56 56 56 56 55 55 54 53 52 52 51 51 50 49 49 48 47 45 44 43 41 39 39 38 37 36 34 32 31 30 28 27 26 25 24 23 22 21
57 57 58 58 59 60 60 60 60 59 58 57 56 55 54 53 53 53 52 51 50 50 48 47 46 44 42 41 41 40 39 37 35 34 32 30 29 28 27 26 25 24 23

GEFSMW_500_meanwind_114.txt.gz
Wind_Speed
9 9 10 10 10 10 10 11 11 11 12 12 12 13 12 12 13 13 14 15 16 18 19 20 20 19 18 18 17 15 13 10 9 9 9 11 13 16 18 21 23 26 27
9 9 9 10 10 11 11 11 11 12 12 12 12 13 13 12 13 13 14 15 16 17 19 19 19 19 19 18 17 15 12 10 8 7 7 9 11 14 17 19 22 25 27
9 9 9 10 10 10 11 11 11 12 12 12 13 13 13 13 13 14 14 15 16 17 19 19 20 19 19 18 17 14 12 9 7 5 6 7 9 12 15 18 21 24 26
9 9 9 9 10 10 11 11 11 12 12 12 13 13 13 13 13 14 14 15 16 17 18 19 19 19 19 18 17 15 12 10 7 5 5 5 7 10 13 17 20 22 26
8 9 9 10 10 11 11 11 12 12 12 12 13 13 13 13 13 14 15 15 15 16 17 18 19 19 19 18 16 15 13 10 8 6 5 5 6 8 11 14 18 20 24
8 8 8 9 10 10 11 11 12 12 12 13 13 14 14 14 14 14 15 15 15 16 17 18 19 19 18 17 16 15 13 11 8 6 5 4 5 6 8 11 15 18 21
8 9 9 9 9 10 10 11 12 12 12 13 13 14 14 14 14 15 15 15 16 16 17 17 18 18 17 17 16 15 13 11 9 7 6 4 4 5 7 9 12 16 20
8 9 10 10 10 10 11 11 12 12 13 13 14 14 15 15 15 15 15 16 16 16 16 17 18 17 16 16 16 15 13 11 10 8 6 5 4 4 6 8 11 14 17
8 9 10 10 10 10 11 11 12 13 13 14 14 15 15 16 16 16 17 17 16 16 16 17 17 17 16 16 15 14 13 12 10 9 7 6 5 4 6 7 9 12 15
8 9 9 9 10 10 11 12 13 13 14 14 15 15 16 16 17 18 18 18 17 17 17 17 17 17 16 16 15 14 13 12 11 9 8 7 5 5 5 7 9 11 13
8 9 9 10 10 11 12 13 14 14 14 15 16 16 16 17 18 18 19 19 18 18 18 17 17 17 16 16 15 14 14 12 11 10 9 7 6 5 6 7 9 11 12
8 10 11 11 11 12 13 13 14 15 15 16 16 17 17 18 19 19 20 20 20 19 19 19 18 17 17 16 16 15 14 13 11 11 10 8 8 7 6 7 9 10 12
9 10 11 12 12 13 14 15 15 16 17 17 17 18 19 19 20 20 21 21 21 21 21 20 20 19 18 17 17 16 15 14 13 11 10 9 9 8 8 8 9 11 13
11 12 12 13 14 15 15 16 17 18 18 19 20 20 21 21 21 22 22 23 23 23 23 22 22 21 20 19 18 17 16 15 14 13 12 11 10 9 9 9 10 12 13
12 13 14 15 16 16 17 18 19 20 20 21 22 23 24 24 24 24 24 25 25 25 25 25 24 23 22 21 21 20 18 17 16 15 13 12 11 11 11 11 11 12 13
15 16 16 17 18 19 20 21 22 23 23 24 24 25 26 27 27 27 27 27 27 27 27 27 27 26 24 24 23 22 21 20 18 17 16 15 14 13 13 13 13 13 14
17 18 19 19 20 21 22 23 24 26 26 27 28 29 29 30 30 31 30 30 30 30 30 30 30 29 28 26 25 25 24 22 21 20 19 18 16 16 15 14 14 14 15
19 20 21 22 23 24 25 26 27 28 29 30 31 32 33 34 34 34 34 34 33 33 33 33 32 32 31 30 29 28 27 25 24 23 22 21 20 19 17 16 16 16 16
22 23 24 25 26 27 29 30 31 32 32 33 34 35 36 37 37 37 38 37 37 36 36 36 35 35 34 33 32 31 30 28 27 26 24 23 23 22 21 20 19 18 18
25 26 27 28 30 31 32 33 34 35 36 37 38 39 40 40 40 41 41 40 40 40 39 39 38 37 37 36 35 35 33 32 30 29 27 26 25 25 24 22 21 20 20
28 29 30 31 33 34 35 36 37 38 39 40 41 42 43 43 44 44 44 44 44 43 43 43 42 41 40 39 38 37 36 35 34 32 31 29 28 27 26 25 24 23 23
30 31 33 34 36 37 39 40 41 41 42 44 45 46 46 47 47 47 47 47 47 47 47 46 46 44 43 42 41 41 39 38 37 35 34 33 31 30 29 28 27 26 26
33 35 36 38 39 41 42 43 44 45 46 47 48 49 50 51 51 51 51 51 51 50 49 48 47 46 45 44 44 43 42 41 40 39 37 36 34 34 32 31 30 29 28
37 38 40 42 43 44 46 47 48 49 51 51 52 53 54 55 55 54 54 53 52 52 51 50 49 48 47 46 46 46 45 44 43 42 40 39 38 36 35 34 32 31 31
41 42 44 45 46 48 49 51 52 54 55 56 56 57 58 58 57 56 55 55 54 53 52 51 50 50 48 47 49 49 48 47 46 45 44 42 41 39 38 36 35 33 32
44 46 47 49 50 52 53 55 56 57 58 59 59 60 61 60 59 58 56 55 54 53 53 53 52 51 50 49 50 50 51 50 49 48 46 45 43 42 40 39 37 36 34

GEFSMW_500_meanwind_120.txt.gz
Wind_Speed
7 7 7 8 8 8 8 9 10 10 11 12 12 13 14 14 15 15 16 17 17 18 19 20 21 22 21 21 20 20 18 15 13 10 9 8 7 7 9 12 14 16 18
6 6 7 7 7 8 8 9 10 10 11 11 12 13 14 14 15 15 16 17 17 18 19 20 21 21 22 21 21 20 18 15 13 10 8 7 6 6 7 9 12 15 17
6 6 6 6 7 8 8 9 10 10 11 11 12 12 13 14 15 15 16 17 18 18 19 19 20 21 21 21 21 20 18 15 13 10 8 6 6 5 6 8 10 13 16
5 5 6 6 7 8 9 9 10 10 11 11 12 12 13 14 14 15 16 16 17 18 18 19 20 20 21 20 20 19 18 16 14 11 9 7 6 5 5 7 9 11 14
5 6 6 6 7 8 8 9 10 10 11 11 12 12 13 13 14 15 15 16 17 18 18 19 19 20 20 20 19 19 18 16 14 11 9 8 7 6 5 6 7 9 12
6 6 6 6 6 7 8 9 10 10 11 11 12 12 13 14 15 15 15 16 17 17 18 19 19 19 20 19 19 18 17 16 15 12 10 9 8 7 5 5 7 8 11
5 5 5 5 6 6 7 8 9 10 11 12 12 13 14 14 15 15 16 16 17 17 17 18 19 19 20 19 19 18 17 16 15 13 11 10 9 7 6 6 7 9 10
5 5 4 5 5 6 7 8 9 10 11 12 13 14 14 14 15 16 16 17 17 17 18 18 19 20 20 19 19 18 17 16 14 13 12 11 9 9 8 7 7 8 10
4 4 4 4 5 6 7 8 9 10 11 12 13 14 14 15 15 16 17 17 18 18 18 18 19 19 20 20 20 19 18 16 14 13 13 12 10 9 9 7 7 8 9
4 4 4 4 5 6 7 8 9 10 11 12 13 14 14 15 16 16 17 18 18 18 19 19 19 19 20 20 20 20 19 17 15 14 13 13 11 10 10 8 7 8 8
4 4 4 5 6 7 7 8 9 11 12 13 13 14 15 16 17 17 18 19 19 20 20 20 20 20 20 20 21 20 20 19 17 16 15 13 12 12 11 10 9 8 9
4 5 5 6 7 8 8 9 10 11 12 13 14 15 16 17 17 18 18 19 20 21 21 21 21 21 21 21 21 21 21 20 18 17 16 15 14 13 13 13 12 11 10
6 6 6 7 8 9 9 10 11 12 13 15 16 16 17 18 19 19 19 20 21 22 23 23 23 23 23 22 22 22 21 21 20 19 18 17 16 15 15 14 13 12 12
8 8 8 9 10 10 11 12 13 14 15 16 17 18 19 20 20 20 21 22 23 23 24 24 25 25 25 25 25 24 23 22 22 21 20 19 18 17 16 15 15 15 14
9 10 10 11 12 12 13 14 15 16 17 18 19 21 22 22 22 22 23 24 24 25 26 26 27 27 27 27 27 27 26 25 24 23 21 20 20 19 18 17 17 17 16
11 12 12 13 13 14 15 16 17 18 19 20 21 23 24 24 24 25 25 26 27 27 28 28 29 29 30 30 30 30 29 28 27 26 24 23 22 21 21 20 19 18 19
13 13 14 15 16 16 17 18 19 20 21 23 24 25 26 26 27 27 28 28 29 30 30 31 31 32 32 33 33 32 32 31 30 29 28 27 25 24 24 23 22 21 21
15 16 17 17 18 19 20 21 22 23 24 26 27 28 28 28 29 30 30 31 32 32 33 34 34 35 35 35 35 35 34 34 33 33 32 30 29 28 27 26 25 25 24
18 19 20 20 21 21 23 24 25 26 27 28 29 30 30 31 32 33 33 34 35 36 37 37 38 38 38 38 38 38 37 37 36 36 35 34 33 31 31 30 29 27 27
21 21 22 23 23 24 26 27 28 29 30 31 32 33 33 34 35 36 37 38 39 39 40 41 41 42 42 42 42 42 41 40 40 39 38 37 36 34 34 33 32 31 30
23 24 25 26 27 28 29 30 31 32 33 34 35 36 37 38 39 40 41 42 43 44 44 45 45 46 46 46 45 45 45 44 43 42 41 40 39 38 37 37 35 34 33
26 27 28 29 30 31 32 33 34 35 36 37 38 39 40 41 43 44 45 47 47 48 49 49 50 50 50 50 49 49 48 47 46 44 43 42 42 41 40 39 38 37 36
29 30 31 31 32 33 35 36 37 38 40 41 42 43 44 45 47 48 50 51 52 52 53 54 54 54 53 52 51 51 50 48 47 46 45 44 44 45 43 42 42 41 39
32 32 33 34 35 37 38 39 41 42 43 44 45 46 48 49 51 53 54 55 55 56 56 57 56 56 55 54 53 52 51 50 48 47 47 46 46 46 46 45 44 43 42
35 36 36 37 39 40 41 42 44 45 46 47 49 50 52 54 55 56 56 57 58 58 59 58 58 57 55 54 54 54 53 52 50 49 49 48 47 47 47 47 46 45 45
38 39 40 41 42 43 44 46 47 48 49 51 52 54 56 57 58 58 59 59 60 60 60 60 59 58 57 56 55 55 54 53 51 50 49 48 47 47 48 49 48 47 46

GEFSMW_500_meanwind_126.txt.gz
Wind_Speed
2 2 1 1 1 2 3 4 5 6 6 6 7 7 9 9 10 11 11 12 12 13 14 16 16 17 17 18 17 16 14 13 11 9 7 5 3 3 5 6 9 11 13
2 1 1 1 1 2 2 3 4 5 5 6 6 7 8 9 10 11 11 12 13 13 14 15 16 16 17 17 16 15 14 13 12 10 8 5 4 3 3 5 8 10 12
2 1 1 0 0 1 2 3 4 5 5 6 6 7 8 9 10 11 12 12 13 13 14 15 16 16 17 17 16 15 14 13 12 11 9 6 4 3 2 4 6 9 11
2 2 1 0 0 1 2 2 3 4 5 5 6 7 8 9 9 10 11 12 13 13 14 15 16 16 17 17 16 15 14 13 12 11 9 7 5 3 2 3 5 7 10
2 1 1 1 0 1 1 2 3 4 5 5 6 7 8 8 9 10 11 12 13 13 14 14 15 16 16 16 16 16 15 14 12 11 10 8 6 4 2 2 4 5 8
1 1 1 1 1 0 1 2 4 4 4 5 6 6 7 8 9 10 11 12 13 13 13 14 15 15 16 16 15 16 15 14 13 11 10 9 7 5 4 2 3 4 6
1 1 2 2 1 1 1 2 3 4 5 5 6 7 8 8 9 10 11 12 13 13 13 14 14 15 15 15 15 15 15 14 14 12 11 10 9 7 5 3 3 4 6
2 2 2 2 2 2 2 2 3 4 5 6 7 7 8 9 10 10 11 12 13 14 14 14 14 15 15 15 15 15 15 15 14 14 12 11 10 8 6 5 5 5 7
2 2 3 3 2 2 1 2 3 4 4 5 6 8 9 9 10 10 11 12 14 14 14 14 15 15 15 16 16 16 16 15 15 15 14 13 12 10 9 7 7 7 8
3 3 3 2 2 1 0 1 2 3 4 5 6 7 9 10 10 11 12 13 14 14 14 15 15 15 16 16 16 16 16 16 16 16 16 14 13 12 11 10 9 9 9
4 3 3 2 2 2 2 2 3 4 5 5 6 8 9 10 11 12 13 14 15 16 15 15 15 16 16 16 17 17 17 17 17 17 17 16 15 14 13 12 12 11 11
4 4 3 3 3 3 3 4 4 5 6 7 8 9 10 11 12 13 14 15 16 17 17 17 17 17 17 17 18 18 18 18 18 18 18 18 17 17 15 15 15 14 14
5 5 4 4 4 5 5 6 6 7 8 8 9 10 11 12 13 14 16 16 17 18 18 18 18 19 19 20 20 20 20 20 21 20 20 20 20 20 19 18 18 17 17
6 6 6 6 6 7 7 8 8 9 10 10 11 12 13 14 15 16 17 18 18 19 19 19 19 20 20 21 22 22 22 23 23 24 24 23 23 22 22 22 21 21 20
7 8 8 8 8 9 9 10 10 11 11 12 13 14 15 16 17 18 19 20 20 21 21 21 21 21 22 23 24 24 25 25 26 26 27 27 27 26 25 25 24 23 23
9 9 9 9 10 10 11 11 12 13 14 14 15 16 17 18 19 20 21 22 23 23 23 23 23 24 25 25 26 27 28 28 29 30 30 31 30 30 29 28 28 27 27
11 11 11 11 12 12 13 13 14 15 16 17 18 19 20 21 22 23 24 25 25 26 26 26 27 27 28 29 30 31 32 32 33 33 34 34 34 33 32 31 31 31 31
12 12 13 13 14 14 15 16 17 18 19 20 20 21 22 23 24 25 27 27 28 29 29 30 30 31 32 33 34 35 36 37 37 38 38 39 38 37 36 35 35 34 34
14 14 14 15 16 16 17 18 19 20 21 22 23 24 25 26 27 28 29 31 32 32 32 33 33 35 36 37 38 39 40 41 42 43 43 43 43 42 41 40 39 37 37
16 16 16 17 18 19 20 21 22 23 24 25 26 27 28 29 30 31 33 34 35 35 36 37 37 38 40 41 43 44 45 46 46 47 47 47 47 46 45 44 43 42 41
18 18 19 20 21 22 23 24 25 26 27 28 29 30 31 32 33 35 36 37 38 39 40 41 42 43 44 46 47 48 49 50 50 50 50 50 50 49 48 48 47 46 45
20 21 22 23 25 26 26 27 28 29 30 31 32 33 34 35 36 38 39 41 42 42 43 44 46 47 49 50 51 52 53 54 54 54 53 52 51 51 50 50 49 49 48
23 24 25 27 28 28 29 30 31 32 33 34 35 36 37 38 40 41 43 44 45 46 47 48 49 51 52 54 55 56 56 56 57 56 55 53 52 52 51 51 50 50 50
26 27 28 29 30 31 32 33 34 35 36 37 38 39 40 42 43 45 46 47 49 50 51 52 53 54 56 57 58 58 58 58 59 57 56 55 54 54 53 52 51 51 51
29 30 31 32 33 34 35 37 37 38 39 40 41 42 43 45 46 47 49 50 52 54 55 56 57 57 58 59 60 61 60 60 61 59 57 56 56 55 54 52 52 51 51
33 33 34 35 36 37 38 39 40 41 41 42 43 45 46 47 48 50 52 53 55 57 58 59 60 60 62 62 63 62 62 62 61 59 57 56 56 55 52 50 49 49 49